, AZ

(GMT )
Fort Huachuca

Weather History for KALK - March, 2013

Change the Weather History Date:

Wednesday, March 20, 2013

  Actual Average Record
Temperature  
Mean Temperature 60 °F -  
Max Temperature 75 °F - - ()
Min Temperature 46 °F - - ()
Degree Days  
Heating Degree Days 4    
Growing Degree Days 10 (Base 50)    
Moisture  
Dew Point 24 °F    
Average Humidity 27    
Maximum Humidity 44    
Minimum Humidity 11    
Precipitation  
Precipitation 0.00 in - - ()
Sea Level Pressure  
Sea Level Pressure 29.90 in    
Wind  
Wind Speed 6 mph (WSW)    
Max Wind Speed 18 mph    
Max Gust Speed 25 mph    
Averages and records for this station are not official NWS values.
T = Trace of Precipitation, MM = Missing Value Source: NWS Daily Summary

Daily Weather History Graph

Daily Weather History Graph

Search for Another Location

Airport or City:

Trip Planner

Search our weather history database for the weather conditions in past years. The results will help you decide how hot, cold, wet, or windy it might be!

Date:

Astronomy

Mar. 20, 2013 Rise Set
Actual Time 6:25 AM MST 6:33 PM MST
Civil Twilight 6:00 AM MST 6:57 PM MST
Nautical Twilight 5:32 AM MST 7:26 PM MST
Astronomical Twilight 5:03 AM MST 7:54 PM MST
Moon 12:31 PM MST (3/20) 1:47 AM MST (3/20)
Length of Visible Light 12h 56m
Length of Day
12h 08m
First Quarter, 60% of the Moon is Illuminated
Mar 20
First Quarter
Mar 27
Full
Apr 2
Last Quarter
Apr 10
New
Apr 18
First Quarter

Hourly Weather History & Observations

Time (MST) Temp. Dew Point Humidity Pressure Visibility Wind Dir Wind Speed Gust Speed Precip Events Conditions
12:56 AM 50.0 °F 26.1 °F 39% 29.97 in - WSW 4.6 mph - N/A   Clear
1:56 AM 52.0 °F 26.1 °F 37% 29.96 in - Calm Calm - N/A   Clear
2:56 AM 50.0 °F 26.1 °F 39% 29.95 in - South 3.5 mph - N/A   Clear
4:56 AM 48.0 °F 26.1 °F 42% 29.96 in - West 3.5 mph - N/A   Clear
5:56 AM 50.0 °F 25.0 °F 38% 29.96 in - Calm Calm - N/A   Clear
6:56 AM 46.9 °F 26.1 °F 44% 29.99 in - Calm Calm - N/A   Clear
7:56 AM 53.1 °F 27.0 °F 37% 30.01 in - Calm Calm - N/A   Clear
9:56 AM 66.0 °F 23.0 °F 20% 29.95 in - ESE 13.8 mph 19.6 mph N/A   Clear
10:56 AM 70.0 °F 23.0 °F 17% 29.91 in - ENE 9.2 mph - N/A   Clear
11:56 AM 71.1 °F 23.0 °F 16% 29.90 in - Calm Calm - N/A   Clear
12:56 PM 75.0 °F 16.0 °F 11% 29.87 in - WSW 9.2 mph - N/A   Clear
1:56 PM 75.0 °F 17.1 °F 11% 29.84 in - SW 9.2 mph - N/A   Clear
2:56 PM 75.0 °F 16.0 °F 11% 29.83 in - West 15.0 mph - N/A   Clear
3:56 PM 73.0 °F 23.0 °F 15% 29.82 in - NW 18.4 mph 25.3 mph 0.00 in   Clear
4:56 PM 73.0 °F 23.0 °F 15% 29.83 in - NW 15.0 mph 24.2 mph N/A   Clear
5:56 PM 70.0 °F 23.0 °F 17% 29.83 in - WNW 10.4 mph - N/A   Clear
7:56 PM 60.1 °F 25.0 °F 26% 29.86 in - WSW 10.4 mph - N/A   Clear
8:56 PM 60.1 °F 25.0 °F 26% 30.05 in - WSW 9.2 mph - N/A   Clear
9:56 PM 59.0 °F 25.0 °F 27% 29.82 in - SW 6.9 mph - N/A   Clear
10:56 PM 51.1 °F 26.1 °F 38% 29.83 in - West 8.1 mph - N/A   Clear
11:56 PM 54.0 °F 24.1 °F 31% 29.80 in - SW 10.4 mph - N/A   Clear